Marathon de Millau : classement 2013

Affiche 1 - 100 de 339

CLASSEMENTNOMPRENOMCATEGORIETEMPS
240FELICEDanyV3M05:22:20
240SUAU-BALMAYERMicheleV2F05:22:20
242TEULIERKarineSEF05:22:45
243LINARDBenoitV1M05:23:19
244BERNADOUBenedicteV1F05:23:54
245NEUGNOTEvelyneV2F05:25:39
246BERNARDFredericV1M05:25:48
247BIGAYONMickaelSEM05:27:41
248CAPELLEManonESF05:28:12
249MALAVALJean-françoisV2M05:30:39
250PEZETRaymondV4M05:31:02
251ARCHENAULTDamarisV2F05:31:07
252DUBOURDIEU-BALMAYERMarie-lineV2F05:31:51
253PRINCIPATOSandraV1F05:32:17
254DESCOUXValerieV1F05:36:02
256AUSTRUYGeorgesV2M05:36:24
255RAYNALGuyV3M05:36:24
257BOUDIERYannickSEM05:37:17
258VILLAINMicheleV2F05:37:38
259GAUTHIERMarie-claudeV3F05:38:03
260BRUNETJean-françoisV2M05:38:04
261TIXIERPauletteV2F05:40:37
262BOYERMichelV3M05:40:46
263MARGOTJean-louisV3M05:44:50
264FOURNIERJackyV1M05:52:21
265KRIERChristianV4M05:56:00
266VERCHEREPierre-louisSEM05:56:35
267LATREILLERose-marieV2F05:58:39
268BOSCEmmanuelESM06:01:24
269BARBIERFlorenceV1F06:02:46
270SCHULLERGastonV3M06:02:52
271LE COLLETERClaudeV3M06:07:04
272POUSTISRobertV2M06:10:07
273LAULHEJanyV3F06:10:12
273ROUFFIACSylvianeV3F06:10:12
275GREZESRolandV3M06:11:03
276ARNOUXAuroreSEF06:11:10
277RAIMBAULTBertrandV1M06:11:15
278CHEYROUXMireilleV3F06:12:19
279CONVERTDanielleV2F06:13:10
280BARBIER ST HILAIREAlainV3M06:13:42
281GIROUDKarineSEF06:15:11
282MAURELThierryV2M06:19:14
283BOUQUETPatriceV3M06:19:26
284RIFFETJean-louisV2M06:19:53
285THUILLIERJean-paulV4M06:19:54
286PAPINETRegisV3M06:19:54
287PELISSIERMarie-andreeV2F06:22:53
288CORNELLESPatrickV2M06:23:28
289CASESRolandV4M06:27:55
290TRAMIERJoseV4M06:28:48
291BRENGUESVeroniqueV1F06:30:37
292BUCHMULLERJackieV3F06:31:41
293LAPERNARose-marieV3F06:33:48
294TAILLEBOURGChristianV2M06:33:49
295NOYRIGAT-GLEYEEricV2M06:34:01
296BOUQUETPauletteV3F06:34:38
297PELLETLindseySEF06:37:22
298DUBOISDidierV1M06:39:26
299HUBERTClementSEM06:39:27
300LIMETSylvieV2F06:41:42
301MAZUYJustineSEF06:42:36
302DHAINAUTM GabrielleV2F06:47:06
303SCHUTZJ PierreV2M06:47:12
304LE CORREYannickESM07:00:35
305RABIAHSebastienSEM07:00:40
306BOLLESergeV4M07:01:35
307LOUSTAUNAULaurentV1M07:02:37
308GRAILLEChristelV1F07:05:51
309BERNESJacquesV4M07:07:51
310DAVIGNONJacquesV2M07:10:37
311DOUZANTJean-marieV3M07:19:15
312AUDIBERTPatrickV3M07:23:41
313ORTHLIEBCelineSEF07:37:22
314GAUTHIEZDanieleV3F07:39:43
315DEWEVERLucienneV4F07:39:46
316LAYEMartineV2F07:48:51
317VAYSSETTESVeroniqueV1F07:51:34
317DAVIGNONJean-lucV2M07:51:34
319VASSORTNicoleV2F08:04:29
320RIVAULT-PINEAUMichelV3M08:05:06
322BREMANDJean-yvesV3M08:05:07
321GENTILHOMMEOdileV3F08:05:07
323DOS SANTOSEliseV3F08:05:08
324PIERROTCatherineV2F08:05:09
325HERRERAGermaineV3F08:05:49
326MONTANELLIJosianeV2F08:12:56
327ROUXEdwigeV1F08:12:58
328PORTETSMartineV2F08:19:38
329LESPESMoniqueV1F08:19:40
330PORTETSDominiqueV3M08:19:42
331DALBOSCFredericV2M08:19:44
332LAGARDELaurenceV2F08:26:16
333VALETTECatherineV2F08:26:16
334FRANCOISVirginieV1F08:42:21
335CAMBRIELSColetteV3F08:42:22
336PICHODOUGuylaineV1F08:42:23
337VAN OMMESLAEGHEYvonV4M08:49:23
338VALINFrançoiseV4F09:19:33
339VALINDanielV4M09:19:34
CLASSEMENTNOMPRENOMCATEGORIETEMPS